Time,TemperatureF,DewpointF,PressureIn,WindDirection,WindDirectionDegrees,WindSpeedMPH,WindSpeedGustMPH,Humidity,HourlyPrecipIn,Conditions,Clouds,dailyrainin,SoftwareType,DateUTC
2013-01-28 00:07:00,29.6,28.0,30.01,ENE,58,0.0,-999.0,92,-99.99,,,0.00,weatherlink.com 1.10,2013-01-28 05:07:00,
2013-01-28 00:23:00,29.7,28.0,30.01,ENE,58,0.0,-999.0,92,-99.99,,,0.00,weatherlink.com 1.10,2013-01-28 05:23:00,
2013-01-28 00:37:00,29.8,28.0,30.00,ENE,58,0.0,-999.0,92,-99.99,,,0.00,weatherlink.com 1.10,2013-01-28 05:37:00,
2013-01-28 00:53:00,29.9,28.0,29.99,NE,55,0.0,-999.0,93,-99.99,,,0.00,weatherlink.com 1.10,2013-01-28 05:53:00,
2013-01-28 01:08:00,29.9,28.0,29.98,NE,55,0.0,-999.0,93,-99.99,,,0.00,weatherlink.com 1.10,2013-01-28 06:08:00,
2013-01-28 01:23:00,30.0,28.0,29.97,NE,55,0.0,-999.0,93,-99.99,,,0.00,weatherlink.com 1.10,2013-01-28 06:23:00,
2013-01-28 01:38:00,30.0,28.0,29.97,NE,55,0.0,-999.0,93,-99.99,,,0.00,weatherlink.com 1.10,2013-01-28 06:38:00,
2013-01-28 01:53:00,30.1,28.0,29.96,NE,55,0.0,-999.0,93,-99.99,,,0.00,weatherlink.com 1.10,2013-01-28 06:53:00,
2013-01-28 02:09:00,30.1,28.0,29.95,NE,55,0.0,-999.0,93,-99.99,,,0.00,weatherlink.com 1.10,2013-01-28 07:09:00,
2013-01-28 02:23:00,30.1,28.0,29.95,NE,55,0.0,-999.0,93,-99.99,,,0.00,weatherlink.com 1.10,2013-01-28 07:23:00,
2013-01-28 02:38:00,30.1,28.0,29.95,NE,55,0.0,-999.0,93,-99.99,,,0.00,weatherlink.com 1.10,2013-01-28 07:38:00,
2013-01-28 02:53:00,30.1,28.0,29.95,NE,55,0.0,-999.0,93,-99.99,,,0.00,weatherlink.com 1.10,2013-01-28 07:53:00,
2013-01-28 03:08:00,30.1,28.0,29.94,NE,55,0.0,-999.0,93,-99.99,,,0.00,weatherlink.com 1.10,2013-01-28 08:08:00,
2013-01-28 03:23:00,30.1,29.0,29.93,NE,53,0.0,-999.0,94,-99.99,,,0.00,weatherlink.com 1.10,2013-01-28 08:23:00,
2013-01-28 03:38:00,30.1,29.0,29.92,NE,51,0.0,-999.0,94,-99.99,,,0.00,weatherlink.com 1.10,2013-01-28 08:38:00,
2013-01-28 03:53:00,30.1,28.0,29.92,NE,51,0.0,-999.0,93,-99.99,,,0.00,weatherlink.com 1.10,2013-01-28 08:53:00,
2013-01-28 04:08:00,30.0,28.0,29.91,NNW,330,0.0,-999.0,93,-99.99,,,0.00,weatherlink.com 1.10,2013-01-28 09:08:00,
2013-01-28 04:23:00,30.0,28.0,29.90,NNW,331,0.0,-999.0,93,-99.99,,,0.00,weatherlink.com 1.10,2013-01-28 09:23:00,
2013-01-28 04:38:00,29.9,28.0,29.90,North,349,0.0,-999.0,94,-99.99,,,0.00,weatherlink.com 1.10,2013-01-28 09:38:00,
2013-01-28 04:53:00,29.8,28.0,29.89,NNE,17,0.0,-999.0,94,-99.99,,,0.00,weatherlink.com 1.10,2013-01-28 09:53:00,
2013-01-28 05:08:00,29.7,28.0,29.89,WNW,292,0.0,-999.0,94,-99.99,,,0.00,weatherlink.com 1.10,2013-01-28 10:08:00,
2013-01-28 05:23:00,29.7,28.0,29.89,NE,49,0.0,-999.0,94,-99.99,,,0.00,weatherlink.com 1.10,2013-01-28 10:23:00,
2013-01-28 05:38:00,29.6,28.0,29.88,NE,49,0.0,-999.0,94,-99.99,,,0.00,weatherlink.com 1.10,2013-01-28 10:38:00,
2013-01-28 05:53:00,29.5,28.0,29.88,NE,49,0.0,-999.0,94,-99.99,,,0.00,weatherlink.com 1.10,2013-01-28 10:53:00,
2013-01-28 06:08:00,29.4,28.0,29.88,NE,49,0.0,-999.0,94,-99.99,,,0.00,weatherlink.com 1.10,2013-01-28 11:08:00,
2013-01-28 06:23:00,29.4,28.0,29.88,NE,49,0.0,-999.0,94,-99.99,,,0.00,weatherlink.com 1.10,2013-01-28 11:23:00,
2013-01-28 06:38:00,29.3,28.0,29.88,NE,49,0.0,-999.0,94,-99.99,,,0.00,weatherlink.com 1.10,2013-01-28 11:38:00,
2013-01-28 06:53:00,29.2,28.0,29.88,NE,49,0.0,-999.0,94,-99.99,,,0.00,weatherlink.com 1.10,2013-01-28 11:53:00,
2013-01-28 07:08:00,29.2,28.0,29.88,NE,49,0.0,-999.0,94,-99.99,,,0.00,weatherlink.com 1.10,2013-01-28 12:08:00,
2013-01-28 07:23:00,29.0,28.0,29.88,NE,49,0.0,-999.0,94,-99.99,,,0.00,weatherlink.com 1.10,2013-01-28 12:23:00,
2013-01-28 07:38:00,28.9,27.0,29.88,NE,49,0.0,-999.0,93,-99.99,,,0.00,weatherlink.com 1.10,2013-01-28 12:38:00,
2013-01-28 07:53:00,28.9,27.0,29.88,NE,49,0.0,-999.0,94,-99.99,,,0.00,weatherlink.com 1.10,2013-01-28 12:53:00,
2013-01-28 08:08:00,28.8,27.0,29.88,NE,49,0.0,-999.0,94,-99.99,,,0.00,weatherlink.com 1.10,2013-01-28 13:08:00,
2013-01-28 08:23:00,28.8,27.0,29.88,NE,49,0.0,-999.0,94,-99.99,,,0.00,weatherlink.com 1.10,2013-01-28 13:23:00,
2013-01-28 08:38:00,28.8,27.0,29.88,NE,49,0.0,-999.0,94,-99.99,,,0.00,weatherlink.com 1.10,2013-01-28 13:38:00,
2013-01-28 08:53:00,28.8,27.0,29.88,NE,49,0.0,-999.0,94,-99.99,,,0.00,weatherlink.com 1.10,2013-01-28 13:53:00,
2013-01-28 09:08:00,28.8,27.0,29.89,NE,49,0.0,-999.0,94,-99.99,,,0.00,weatherlink.com 1.10,2013-01-28 14:08:00,
2013-01-28 09:23:00,28.9,27.0,29.89,NE,49,0.0,-999.0,94,-99.99,,,0.00,weatherlink.com 1.10,2013-01-28 14:23:00,
2013-01-28 09:38:00,29.0,28.0,29.90,NE,49,0.0,-999.0,94,-99.99,,,0.00,weatherlink.com 1.10,2013-01-28 14:38:00,
2013-01-28 09:53:00,29.2,28.0,29.90,NE,49,0.0,-999.0,94,-99.99,,,0.00,weatherlink.com 1.10,2013-01-28 14:53:00,
2013-01-28 10:08:00,29.4,28.0,29.90,NE,49,0.0,-999.0,94,-99.99,,,0.00,weatherlink.com 1.10,2013-01-28 15:08:00,
2013-01-28 10:23:00,29.7,28.0,29.91,SSE,155,0.0,-999.0,94,-99.99,,,0.00,weatherlink.com 1.10,2013-01-28 15:23:00,
2013-01-28 10:52:00,30.2,29.0,29.92,SSE,155,0.0,-999.0,94,-99.99,,,0.00,weatherlink.com 1.10,2013-01-28 15:52:00,
2013-01-28 11:07:00,30.6,29.0,29.92,SSE,155,0.0,-999.0,94,-99.99,,,0.00,weatherlink.com 1.10,2013-01-28 16:07:00,
2013-01-28 11:22:00,30.9,29.0,29.93,SSE,155,0.0,-999.0,93,-99.99,,,0.00,weatherlink.com 1.10,2013-01-28 16:22:00,
2013-01-28 11:37:00,31.3,30.0,29.94,SSE,155,0.0,-999.0,93,-99.99,,,0.00,weatherlink.com 1.10,2013-01-28 16:37:00,
2013-01-28 11:52:00,31.9,30.0,29.93,SSE,155,0.0,-999.0,93,-99.99,,,0.00,weatherlink.com 1.10,2013-01-28 16:52:00,
2013-01-28 12:07:00,32.2,30.0,29.93,SSE,155,0.0,-999.0,91,-99.99,,,0.00,weatherlink.com 1.10,2013-01-28 17:07:00,
2013-01-28 12:22:00,32.7,31.0,29.93,SSE,155,0.0,-999.0,92,-99.99,,,0.00,weatherlink.com 1.10,2013-01-28 17:22:00,
2013-01-28 12:37:00,32.9,30.0,29.92,SSE,155,0.0,-999.0,90,-99.99,,,0.00,weatherlink.com 1.10,2013-01-28 17:37:00,
2013-01-28 12:53:00,33.3,31.0,29.92,SSE,155,0.0,-999.0,91,-99.99,,,0.00,weatherlink.com 1.10,2013-01-28 17:53:00,
2013-01-28 13:08:00,33.2,31.0,29.92,NE,45,0.0,-999.0,90,-99.99,,,0.00,weatherlink.com 1.10,2013-01-28 18:08:00,
2013-01-28 13:23:00,33.7,31.0,29.91,NE,45,2.0,-999.0,90,-99.99,,,0.00,weatherlink.com 1.10,2013-01-28 18:23:00,
2013-01-28 13:38:00,33.2,31.0,29.90,ENE,58,0.0,-999.0,90,-99.99,,,0.00,weatherlink.com 1.10,2013-01-28 18:38:00,
2013-01-28 13:53:00,33.3,31.0,29.89,NE,44,3.0,-999.0,90,-99.99,,,0.00,weatherlink.com 1.10,2013-01-28 18:53:00,
2013-01-28 14:08:00,33.3,31.0,29.90,NE,44,0.0,-999.0,90,-99.99,,,0.00,weatherlink.com 1.10,2013-01-28 19:08:00,
2013-01-28 14:23:00,33.5,31.0,29.90,NE,49,0.0,-999.0,89,-99.99,,,0.00,weatherlink.com 1.10,2013-01-28 19:23:00,
2013-01-28 14:38:00,33.2,30.0,29.90,NE,49,0.0,-999.0,89,-99.99,,,0.00,weatherlink.com 1.10,2013-01-28 19:38:00,
2013-01-28 15:08:00,33.4,31.0,29.92,NE,48,1.0,-999.0,89,-99.99,,,0.00,weatherlink.com 1.10,2013-01-28 20:08:00,
2013-01-28 15:23:00,33.4,31.0,29.94,NE,49,0.0,-999.0,89,-99.99,,,0.00,weatherlink.com 1.10,2013-01-28 20:23:00,
2013-01-28 15:38:00,33.1,30.0,29.95,NE,49,0.0,-999.0,88,-99.99,,,0.00,weatherlink.com 1.10,2013-01-28 20:38:00,
2013-01-28 15:53:00,32.8,30.0,29.95,NE,49,0.0,-999.0,88,-99.99,,,0.00,weatherlink.com 1.10,2013-01-28 20:53:00,
2013-01-28 16:08:00,32.6,30.0,29.94,NE,49,1.0,-999.0,89,-99.99,,,0.00,weatherlink.com 1.10,2013-01-28 21:08:00,
2013-01-28 16:23:00,32.4,30.0,29.94,NE,44,1.0,-999.0,90,-99.99,,,0.00,weatherlink.com 1.10,2013-01-28 21:23:00,
2013-01-28 16:38:00,32.3,30.0,29.95,NE,44,0.0,-999.0,91,-99.99,,,0.00,weatherlink.com 1.10,2013-01-28 21:38:00,
2013-01-28 16:52:00,32.5,30.0,29.96,NE,44,0.0,-999.0,91,-99.99,,,0.00,weatherlink.com 1.10,2013-01-28 21:52:00,
2013-01-28 17:09:00,32.5,31.0,29.97,NE,44,0.0,-999.0,92,-99.99,,,0.00,weatherlink.com 1.10,2013-01-28 22:09:00,
2013-01-28 17:23:00,32.5,31.0,29.97,NE,44,0.0,-999.0,92,-99.99,,,0.00,weatherlink.com 1.10,2013-01-28 22:23:00,
2013-01-28 17:38:00,32.4,30.0,29.96,NE,44,0.0,-999.0,91,-99.99,,,0.01,weatherlink.com 1.10,2013-01-28 22:38:00,
2013-01-28 17:53:00,32.3,30.0,29.96,NE,44,0.0,-999.0,92,-99.99,,,0.01,weatherlink.com 1.10,2013-01-28 22:53:00,
2013-01-28 18:08:00,32.0,30.0,29.97,NE,44,0.0,-999.0,91,-99.99,,,0.01,weatherlink.com 1.10,2013-01-28 23:08:00,
2013-01-28 18:23:00,32.0,30.0,29.97,NE,44,0.0,-999.0,92,-99.99,,,0.01,weatherlink.com 1.10,2013-01-28 23:23:00,
2013-01-28 18:38:00,31.9,30.0,29.97,NE,44,0.0,-999.0,92,-99.99,,,0.02,weatherlink.com 1.10,2013-01-28 23:38:00,
2013-01-28 18:53:00,31.9,30.0,29.98,NE,44,0.0,-999.0,93,-99.99,,,0.02,weatherlink.com 1.10,2013-01-28 23:53:00,
2013-01-28 19:08:00,31.8,30.0,29.98,NE,44,0.0,-999.0,93,-99.99,,,0.02,weatherlink.com 1.10,2013-01-29 00:08:00,
2013-01-28 19:23:00,31.6,30.0,29.98,NE,44,0.0,-999.0,93,-99.99,,,0.02,weatherlink.com 1.10,2013-01-29 00:23:00,
2013-01-28 19:38:00,31.6,30.0,29.98,NE,44,0.0,-999.0,93,-99.99,,,0.02,weatherlink.com 1.10,2013-01-29 00:38:00,
2013-01-28 19:53:00,31.6,30.0,29.99,NE,44,0.0,-999.0,93,-99.99,,,0.02,weatherlink.com 1.10,2013-01-29 00:53:00,
2013-01-28 20:09:00,31.6,30.0,29.99,NE,44,0.0,-999.0,93,-99.99,,,0.02,weatherlink.com 1.10,2013-01-29 01:09:00,
2013-01-28 20:22:00,31.4,30.0,29.98,NE,44,0.0,-999.0,93,-99.99,,,0.02,weatherlink.com 1.10,2013-01-29 01:22:00,
2013-01-28 20:37:00,31.3,30.0,29.98,NE,44,0.0,-999.0,93,-99.99,,,0.02,weatherlink.com 1.10,2013-01-29 01:37:00,
2013-01-28 20:53:00,31.2,29.0,29.98,NE,44,0.0,-999.0,93,-99.99,,,0.02,weatherlink.com 1.10,2013-01-29 01:53:00,
2013-01-28 21:08:00,31.2,29.0,29.98,NE,44,0.0,-999.0,93,-99.99,,,0.03,weatherlink.com 1.10,2013-01-29 02:08:00,
2013-01-28 21:23:00,31.3,30.0,29.97,NE,44,0.0,-999.0,93,-99.99,,,0.03,weatherlink.com 1.10,2013-01-29 02:23:00,
2013-01-28 21:38:00,31.3,30.0,29.95,NE,44,0.0,-999.0,93,-99.99,,,0.03,weatherlink.com 1.10,2013-01-29 02:38:00,
2013-01-28 21:53:00,31.4,30.0,29.95,SSE,147,0.0,-999.0,93,-99.99,,,0.03,weatherlink.com 1.10,2013-01-29 02:53:00,
2013-01-28 22:08:00,31.3,30.0,29.94,ESE,115,0.0,-999.0,93,-99.99,,,0.03,weatherlink.com 1.10,2013-01-29 03:08:00,
2013-01-28 22:23:00,31.3,30.0,29.94,SW,233,0.0,-999.0,93,-99.99,,,0.03,weatherlink.com 1.10,2013-01-29 03:23:00,
2013-01-28 22:38:00,31.4,30.0,29.93,SSW,194,0.0,-999.0,93,-99.99,,,0.03,weatherlink.com 1.10,2013-01-29 03:38:00,
2013-01-28 22:53:00,31.4,29.0,29.93,WSW,257,0.0,-999.0,92,-99.99,,,0.03,weatherlink.com 1.10,2013-01-29 03:53:00,
2013-01-28 23:08:00,31.4,29.0,29.93,NE,44,0.0,-999.0,92,-99.99,,,0.03,weatherlink.com 1.10,2013-01-29 04:08:00,
2013-01-28 23:23:00,31.4,29.0,29.92,NE,44,0.0,-999.0,92,-99.99,,,0.03,weatherlink.com 1.10,2013-01-29 04:23:00,
2013-01-28 23:38:00,31.5,30.0,29.91,NW,314,0.0,-999.0,92,-99.99,,,0.03,weatherlink.com 1.10,2013-01-29 04:38:00,
2013-01-28 23:53:00,31.7,29.0,29.90,SSW,200,3.0,-999.0,91,-99.99,,,0.03,weatherlink.com 1.10,2013-01-29 04:53:00,